Regional Weather Roundup
Issued by NWS

Home | Current Version | Previous Version | Text Only | Print | Product List | Glossary On
Versions: 1 2 3 4 5 6 7 8 9 10 11 12 13 14 15 16 17 18 19 20 21 22 23 24 25 26 27 28 29 30 31 32 33 34 35 36 37 38 39 40 41 42 43 44 45 46 47 48 49 50
000
ASUS43 KDMX 161806
RWRIA

WEATHER ROUNDUP FOR IOWA
NATIONAL WEATHER SERVICE DES MOINES IA
1200 PM CST TUE JAN 16 2018

NOTE: "FAIR" INDICATES FEW OR NO CLOUDS BELOW 12,000 FEET WITH NO
SIGNIFICANT WEATHER AND/OR OBSTRUCTIONS TO VISIBILITY.

* - THESE STATIONS ARE NOT NWS STATIONS...THUS NOT UNDER NWS
QUALITY CONTROL.  THEY ALSO DO NOT REPORT WEATHER SUCH
AS PRECIPITATION OR FOG.

IAZ001>003-012>014-020>022-031>034-043>046-161900-
   NORTHWEST IOWA

CITY           SKY/WX    TMP DP  RH WIND       PRES   REMARKS
CARROLL *      PTSUNNY    1  -4  78 NW15      30.71F WCI -18
CHEROKEE *     MOSUNNY    2  -5  72 W9        30.72F WCI -12
DENISON *      CLOUDY     1  -4  78 NW10      30.73F WCI -14
LE MARS *      SUNNY      0  -6  78 W9        30.75F WCI -16
ORANGE CITY *  SUNNY      1  -2  85 NW10G16   30.70F WCI -14
SHELDON *      PTSUNNY    0  -6  78 NW12      30.69F WCI -18
SIOUX CITY     SUNNY      1  -6  72 NW14      30.76F WCI -17
6HR MIN TEMP:  -5; 6HR MAX TEMP:   1; 6HR PCP: TRACE;

SPENCER        MOSUNNY    1  -7  68 NW12      30.69F WCI -16
6HR MIN TEMP:  -8; 6HR MAX TEMP:   1; 6HR PCP: TRACE;

STORM LAKE *   MOSUNNY    0  -6  78 NW14      30.67F WCI -19
$$

IAZ055>058-069>071-079>083-090>094-161900-
   SOUTHWEST IOWA

CITY           SKY/WX    TMP DP  RH WIND       PRES   REMARKS
ATLANTIC *     MOSUNNY    3  -4  72 NW12      30.73F WCI -13
AUDUBON *      PTSUNNY    3  -2  78 NW9       30.70F WCI -11
CLARINDA *     MOSUNNY    3  -2  78 N14         N/A  WCI -15
COUNCIL BLFS * PTSUNNY    3   0  85 N12       30.73F WCI -13
CRESTON *      CLOUDY     3  -4  72 NW13      30.70F WCI -14
HARLAN  *      PTSUNNY    1  -4  78 NW13      30.76F WCI -16
LAMONI         SUNNY      6  -4  63 NW12      30.68F WCI  -9
6HR MIN TEMP:  -4; 6HR MAX TEMP:   6;

RED OAK *      CLOUDY     5  -2  72 NW9G15    30.75F WCI  -9
SHENANDOAH *   MOSUNNY    5  -2  72 NW10      30.78F WCI -10
$$

IAZ047>049-059>061-072>074-084-161900-
   CENTRAL IOWA

CITY           SKY/WX    TMP DP  RH WIND       PRES   REMARKS
AMES           CLOUDY     4  -2  76 NW12      30.70F WCI -12
6HR MIN TEMP:  -4; 6HR MAX TEMP:   4; 6HR PCP: TRACE;

ANKENY *       CLOUDY     3  -4  72 NW15      30.71F WCI -15
BOONE *        CLOUDY     3  -2  78 NW10      30.67F HAZE    WCI -12
CHARITON *     MOSUNNY    3  -4  72 NW12      30.68F WCI -13
DES MOINES     MOSUNNY    4  -5  66 NW14      30.69F WCI -14
6HR MIN TEMP:  -4; 6HR MAX TEMP:   4; 6HR PCP: TRACE;

GRINNELL*      MOSUNNY    4  -1  78 NW15      30.66F WCI -14
KNOXVILLE *    PTSUNNY    3  -6  66 NW14      30.67F WCI -15
MARSHALLTOWN   CLOUDY     4  -1  80 NW13      30.66F WCI -13
6HR MIN TEMP:  -2; 6HR MAX TEMP:   4; 6HR PCP: TRACE;

NEWTON *       CLOUDY     3  -4  72 NW17      30.67F WCI -17
PELLA *        LGT SNOW   5  -2  70 NW12      30.69F WCI -10
PERRY *        CLOUDY     2  -5  74 NW10      30.71F WCI -14
$$

IAZ004>006-015-016-023>025-035-036-161900-
   NORTH CENTRAL IOWA

CITY           SKY/WX    TMP DP  RH WIND       PRES   REMARKS
ALGONA *       PTSUNNY    0 N/A N/A NW10      30.67F HAZE    WCI -17
CLARION *      CLOUDY     1  -2  85 NW16      30.67F WCI -18
ESTHERVILLE    CLOUDY    -2  -6  83 NW12      30.67F WCI -20
6HR MIN TEMP:  -8; 6HR MAX TEMP:  -2; 6HR PCP: TRACE;

FORT DODGE *   CLOUDY     2  -5  72 NW8       30.69F WCI -12
MASON CITY     CLOUDY     1  -5  75 NW14      30.66F HAZE    WCI -17
6HR MIN TEMP:  -3; 6HR MAX TEMP:   1; 6HR PCP: TRACE;

FOREST CITY *  CLOUDY     3   0  85 NW12      30.65F HAZE    WCI -13
WEBSTER CITY * CLOUDY     3  -2  78 NW16      30.66F WCI -16
IOWA FALLS *   PTSUNNY    4  -2  76 NW13      30.66F HAZE    WCI -13
$$

IAZ007>011-017>019-026>030-037>042-050>054-066-161900-
   NORTHEAST IOWA

CITY           SKY/WX    TMP DP  RH WIND       PRES   REMARKS
CEDAR RAPIDS     N/A      9   2  73 NW17      30.61F WCI  -9
6HR MIN TEMP:   2; 6HR MAX TEMP:   9; 6HR PCP: TRACE;

CHARLES CITY * CLOUDY     3   0  85 NW12G21   30.63F WCI -13
CLINTON *      FLURRIES  15   9  76 NW12      30.57F WCI   2
DECORAH *      PTSUNNY    9   5  85 N10       30.58F WCI  -6
DUBUQUE          N/A     13   6  74 NW14      30.54F WCI  -2
6HR MIN TEMP:   4; 6HR MAX TEMP:  13;

MONTICELLO *   PTSUNNY   16   7  67 NW13      30.58F WCI   2
OELWEIN *        N/A      9   5  85 NW16      30.60F WCI  -9
WATERLOO         N/A      6  -2  69 NW14      30.65F WCI -11
6HR MIN TEMP:   0; 6HR MAX TEMP:   6; 6HR PCP:  0.02;

$$

IAZ064-065-067-068-078-161900-
   EAST CENTRAL IOWA

CITY           SKY/WX    TMP DP  RH WIND       PRES   REMARKS
DAVENPORT      LGT SNOW  14   7  73 NW13      30.59F WCI   0
                                      6HR PCP: TRACE;

IOWA CITY        N/A     10   1  67 NW12      30.64F WCI  -5
6HR MIN TEMP:   1; 6HR MAX TEMP:  10; 6HR PCP: TRACE;

MT. PLEASANT * PTSUNNY    9   1  72 NW12G17   30.65F WCI  -6
MUSCATINE *    CLOUDY    10   1  67 NW12G17   30.65S WCI  -4
QUAD CITIES    PTSUNNY   14   6  70 W15       30.59F WCI  -1
6HR MIN TEMP:   2; 6HR MAX TEMP:  14; 6HR PCP: TRACE;

$$

IAZ062-063-075>077-085>089-095>099-161900-
   SOUTHEAST IOWA

CITY           SKY/WX    TMP DP  RH WIND       PRES   REMARKS
BURLINGTON     CLOUDY     7   0  73 NW13      30.62F WCI  -9
6HR MIN TEMP:  -6; 6HR MAX TEMP:   7; 6HR PCP: TRACE;

FAIRFIELD *    CLOUDY     7  -2  66 NW14      30.65F WCI -10
FORT MADISON * FLURRIES   9   1  72 NW14      30.64F WCI  -8
KEOKUK *       CLOUDY     9   0  66 NW10      30.65F WCI  -6
OSKALOOSA *      N/A      5  -2  72 NW14      30.67F WCI -13
OTTUMWA        MOSUNNY    5  -4  66 NW16      30.66F WCI -14
6HR MIN TEMP:  -4; 6HR MAX TEMP:   5; 6HR PCP: TRACE;

WASHINGTON *   FLURRIES   7   1  78 NW15      30.66F WCI -11
$$

ABBREVIATIONS USED IN REMARKS
   TC - TEMPERATURES IN CELSIUS
  WCI - WIND CHILL INDEX
   HX - HEAT INDEX
  VSB - VISIBILITY
$$




USA.gov is the U.S. government's official web portal to all federal, state and local government web resources and services.